GFSFLT1_prec_cthk_024.txt.gz
RH
49 53 59 65 69 68 73 78 86 96 86 81 73 71 77 79 79 74 68 64 62 58 57 55 53 52 51 50 47 45 45 43
49 52 55 60 64 68 74 84 91 87 75 71 70 74 73 69 64 58 58 58 56 55 56 57 55 55 52 51 50 44 40 35
53 55 58 60 68 74 80 83 79 74 71 67 69 68 63 58 56 59 60 59 63 64 64 62 56 52 48 42 34 29 31 33
51 56 62 68 71 71 73 73 73 67 63 62 57 57 58 60 64 65 65 66 65 62 57 52 43 37 32 30 31 30 32 28
57 59 59 62 65 72 68 62 59 56 54 56 57 62 66 65 68 72 69 62 58 51 43 36 35 32 31 34 32 34 36 34
58 58 60 62 61 58 54 51 50 51 54 60 64 70 73 71 69 65 63 54 50 46 41 37 35 35 37 34 35 41 43 42
55 56 57 57 58 54 50 51 51 56 60 64 68 66 66 64 65 66 60 59 54 52 49 43 34 31 33 36 43 47 48 43
55 53 53 55 54 54 54 54 59 61 64 63 59 65 72 64 62 58 59 53 48 44 35 33 37 36 37 46 47 46 46 45
49 51 56 56 56 57 57 59 60 60 58 62 67 74 67 62 54 50 48 44 38 33 31 31 36 40 43 47 47 47 53 53
50 54 56 55 53 56 59 61 62 62 65 68 70 68 60 59 54 51 44 40 37 38 33 35 40 47 48 47 47 47 60 57
50 54 53 52 54 58 61 63 67 64 67 66 65 63 61 57 53 45 40 40 37 34 32 32 35 40 46 47 46 53 61 56
49 52 51 53 57 60 63 64 66 66 76 73 62 62 58 55 49 43 42 40 39 35 32 29 35 42 44 43 47 57 56 58
48 52 52 55 59 62 63 63 68 79 79 60 63 59 59 52 48 45 48 46 42 35 33 37 37 39 41 52 55 53 60 67
49 51 52 56 60 63 61 66 78 76 61 63 61 59 55 48 50 54 51 47 39 34 39 40 38 40 36 43 60 63 69 74
48 50 52 56 62 64 62 75 73 65 65 62 60 57 52 47 51 50 50 44 37 40 41 38 37 39 45 50 59 68 74 76
46 50 53 58 63 62 65 76 65 66 64 61 58 56 49 51 50 50 48 39 39 41 40 41 42 43 46 53 65 69 69 57
45 49 53 58 62 62 70 78 59 58 58 60 58 51 53 53 52 47 40 39 41 39 40 43 43 45 48 56 61 58 48 40
42 47 53 60 62 69 79 65 63 60 63 62 58 56 55 54 49 40 41 42 37 38 42 43 47 50 50 53 49 44 40 42
42 49 55 62 66 73 66 66 65 67 66 65 59 58 56 51 45 40 43 42 40 40 47 46 49 49 49 46 44 40 42 44

GFSFLT1_prec_cthk_027.txt.gz
RH
54 56 59 60 66 68 66 69 73 78 85 80 73 71 75 78 70 69 65 60 58 58 53 51 54 56 56 54 50 46 43 39
58 57 63 66 65 66 69 72 77 83 86 78 76 75 75 67 61 57 54 53 53 54 58 61 62 63 58 53 46 39 37 34
58 59 60 63 62 67 72 76 80 86 76 72 71 71 61 59 56 54 57 59 63 66 67 69 66 59 49 41 42 38 37 33
54 56 59 63 65 70 76 76 75 69 68 64 59 58 54 54 58 62 65 66 66 68 66 61 54 47 45 42 41 40 35 35
55 58 61 63 65 64 66 70 67 61 56 54 56 60 65 67 69 69 66 64 65 58 55 52 48 46 46 45 42 40 38 43
53 58 60 60 63 64 67 62 58 54 53 56 60 63 66 69 69 71 70 66 57 54 53 52 51 48 47 44 42 41 44 44
51 57 57 60 60 59 57 55 53 53 53 56 60 62 62 59 69 77 70 59 56 53 50 43 41 44 46 46 49 48 48 46
47 48 51 55 56 54 54 52 53 53 54 55 57 57 64 70 78 66 59 56 54 50 42 40 39 41 40 49 44 54 46 54
44 46 48 52 55 54 52 52 53 54 55 58 60 63 66 69 63 57 54 53 49 44 43 43 43 43 43 48 50 53 53 57
47 48 49 51 52 54 52 53 53 53 57 62 62 65 68 73 63 53 55 51 46 43 45 45 43 41 44 51 55 51 53 49
42 43 46 48 50 52 52 54 53 57 59 60 63 71 81 75 59 54 52 46 47 48 50 48 46 44 47 45 46 40 56 60
41 43 48 49 52 53 53 55 57 59 60 62 69 76 74 58 53 55 52 50 51 53 52 50 51 50 47 42 37 38 48 69
41 43 48 51 53 54 55 58 60 62 63 67 79 75 52 54 57 55 51 54 57 57 54 50 51 48 49 45 40 35 56 68
40 44 46 51 55 57 56 59 60 68 67 71 72 59 56 59 51 52 57 60 60 57 51 55 53 54 52 43 38 46 52 59
41 46 46 52 55 57 57 58 63 67 69 69 75 66 57 55 56 57 60 64 60 54 52 55 55 53 47 46 46 48 59 65
40 44 49 52 54 55 57 60 65 72 74 70 76 73 57 59 61 64 66 64 58 51 55 54 52 52 43 41 48 50 53 58
38 43 48 50 52 53 55 63 68 75 72 75 68 61 62 62 64 66 68 61 52 55 55 52 50 52 40 41 45 46 48 47
38 42 46 50 53 54 58 67 74 78 73 71 69 66 67 64 64 67 61 53 54 57 55 54 53 54 41 43 44 40 42 47
38 43 46 51 56 59 66 72 78 72 72 75 76 70 67 65 68 64 55 55 59 55 57 55 55 52 48 46 46 42 45 49

GFSFLT1_prec_cthk_030.txt.gz
RH
44 44 48 53 58 62 65 69 69 74 73 78 80 70 61 59 57 58 58 53 48 46 46 45 47 52 55 56 55 51 43 35
46 47 48 49 53 56 60 65 72 72 76 81 72 57 54 54 55 54 47 45 45 47 50 53 57 60 57 50 42 38 36 36
48 49 54 56 57 58 64 68 72 71 79 69 58 55 52 51 48 46 47 50 53 57 59 61 59 49 45 42 37 35 36 36
51 51 54 55 60 63 65 69 69 71 68 57 56 52 49 46 47 48 53 60 63 61 63 59 49 48 45 38 35 38 38 36
51 51 54 57 59 64 66 68 63 62 61 58 53 50 50 52 55 56 60 62 64 65 58 52 53 47 38 35 37 41 40 38
49 47 50 53 58 61 59 63 60 62 57 54 51 54 56 58 60 65 63 67 67 61 55 54 47 42 35 36 44 46 44 42
46 50 48 53 53 53 58 61 59 54 53 52 53 53 55 56 59 63 64 67 65 58 52 44 40 35 35 37 43 48 47 44
48 52 48 49 51 53 56 53 51 51 51 49 50 52 54 56 59 61 70 71 63 57 44 41 39 37 39 39 47 48 47 46
44 47 51 53 51 51 51 49 49 50 48 46 49 53 57 59 62 66 73 67 66 52 42 47 41 41 41 45 50 50 49 52
41 43 46 47 47 47 47 48 49 48 46 47 52 56 57 60 66 73 66 66 50 45 47 43 47 47 47 46 47 50 47 47
37 39 41 43 44 46 48 49 51 48 47 52 56 59 61 64 68 75 74 52 44 46 46 52 53 51 54 56 50 43 43 40
34 36 39 42 45 47 50 52 54 49 51 55 59 63 71 67 68 68 64 53 48 48 55 58 55 56 56 53 50 40 38 40
36 36 39 41 45 49 50 55 55 53 53 59 63 67 77 67 63 76 75 63 57 57 64 63 57 56 57 55 46 49 46 48
40 41 41 43 45 49 53 56 57 55 57 63 70 73 73 82 67 74 69 59 56 69 67 61 58 61 61 54 54 52 51 47
42 49 52 49 48 50 56 57 58 57 61 71 73 74 88 71 74 75 60 57 67 70 67 60 62 65 64 56 56 51 44 47
45 47 53 57 54 55 60 59 58 58 68 75 78 82 72 89 76 71 64 66 66 70 65 65 69 64 62 54 58 49 43 44
40 46 47 53 57 59 59 58 58 61 74 79 74 87 86 79 74 69 60 69 80 72 70 66 64 64 58 56 55 46 40 37
34 42 45 51 56 63 68 64 65 66 78 80 84 80 86 78 77 67 75 80 72 64 67 69 69 64 58 56 53 47 40 38
36 35 40 48 58 64 67 68 70 76 80 79 81 84 85 86 71 76 77 68 68 72 72 66 64 67 56 53 51 51 47 42

GFSFLT1_prec_cthk_033.txt.gz
RH
41 41 42 44 48 52 54 54 55 61 60 63 68 64 51 51 48 48 53 53 50 49 45 44 46 50 52 51 44 41 36 31
42 42 39 42 45 47 45 55 55 64 59 65 70 58 57 53 52 49 52 48 44 45 47 51 55 56 54 47 41 39 33 30
43 42 39 41 42 49 55 61 62 64 65 71 68 64 61 52 49 48 46 45 48 52 56 56 58 54 48 43 40 36 32 32
43 43 40 43 48 55 58 71 63 65 65 68 66 60 53 49 49 45 46 47 51 54 54 57 58 56 48 42 37 35 35 36
47 47 45 43 53 56 58 59 60 62 64 64 58 53 48 46 44 47 51 54 56 54 58 64 57 53 51 44 37 36 36 36
47 51 49 53 51 55 56 56 59 59 58 59 53 51 46 45 47 49 52 51 50 56 62 64 57 52 52 39 34 37 40 42
58 53 51 51 50 50 52 56 56 59 57 54 53 51 46 46 51 56 57 59 59 62 65 62 56 53 39 33 35 38 42 46
53 48 48 50 48 48 53 53 54 55 51 50 50 46 48 53 59 60 63 63 64 64 66 63 55 36 33 37 41 44 44 47
41 41 43 43 45 45 47 49 49 47 48 49 50 49 52 55 56 60 65 66 66 63 67 60 45 42 43 42 44 48 51 53
35 38 41 43 42 44 48 48 46 46 47 49 51 55 58 59 61 62 74 76 65 61 56 64 63 54 47 48 53 54 52 54
39 40 40 41 43 45 47 47 48 47 48 51 55 61 62 64 65 73 69 71 76 67 53 57 56 52 48 57 59 57 55 54
33 34 35 37 40 41 44 47 49 50 51 54 57 65 66 69 73 72 78 80 86 64 56 59 63 58 55 60 58 56 54 50
34 34 34 34 36 38 41 47 51 53 55 56 61 69 71 72 78 76 80 85 81 70 64 62 63 65 61 62 59 62 61 58
40 39 38 38 40 44 51 56 57 58 59 59 62 71 74 77 77 84 78 78 75 72 63 62 73 72 68 68 65 68 66 61
42 44 46 49 54 57 63 68 69 63 59 60 66 73 76 81 81 82 75 83 84 72 61 70 80 71 68 73 67 71 68 62
44 45 50 58 63 66 74 78 78 73 74 71 73 73 80 83 79 78 86 84 79 65 77 78 64 74 78 71 69 76 71 59
29 36 47 57 57 63 68 68 70 74 72 78 80 77 84 84 81 91 91 82 76 83 74 78 80 78 75 75 74 74 65 53
32 35 42 45 48 50 55 65 76 76 82 84 82 85 88 88 90 94 87 81 84 79 85 83 77 79 82 72 73 66 56 52
33 32 33 36 41 50 57 70 75 80 82 80 85 89 92 93 95 90 86 86 84 84 80 78 78 76 73 69 59 57 55 54

GFSFLT1_prec_cthk_036.txt.gz
RH
44 46 48 49 54 47 45 49 50 50 58 56 63 64 49 40 40 46 43 46 46 47 45 41 41 40 45 47 48 46 43 42
43 45 47 51 54 49 42 44 51 56 54 59 60 54 48 43 46 46 45 44 43 43 42 42 46 49 51 51 54 50 47 44
43 43 46 47 49 53 54 56 62 59 58 55 54 54 49 50 48 43 42 43 43 42 45 48 52 55 57 58 52 49 46 46
41 41 44 44 44 50 58 63 62 58 57 56 54 53 52 48 46 45 46 46 45 47 51 55 60 64 68 59 54 51 49 45
44 43 49 43 46 52 59 62 61 58 59 59 57 56 52 51 48 48 47 48 51 54 55 56 61 64 63 62 60 55 45 40
42 47 50 52 50 57 61 61 62 60 61 62 60 59 53 51 49 48 51 54 55 57 57 58 62 63 64 64 64 51 47 46
47 52 52 55 54 68 68 62 57 59 61 60 58 55 50 48 48 51 55 58 59 64 69 73 72 61 63 52 50 50 47 48
52 54 54 56 54 64 59 56 56 57 55 55 53 52 53 53 56 59 62 65 69 67 71 72 76 71 57 44 45 46 46 49
48 56 53 52 56 52 52 51 52 52 53 54 54 58 63 68 70 71 71 72 69 78 83 86 73 66 65 56 44 50 54 54
42 44 46 45 53 46 49 51 52 51 53 56 58 63 67 71 77 80 78 77 78 85 77 74 70 74 70 60 56 56 56 58
36 38 38 40 42 46 48 46 50 52 55 59 64 69 77 80 78 77 78 82 74 84 76 81 73 64 61 60 63 63 60 61
27 26 28 32 36 38 42 46 48 51 55 61 68 74 81 85 83 76 72 78 75 84 78 82 73 63 62 67 74 65 63 66
27 28 30 31 33 36 37 42 49 55 60 67 67 70 77 80 72 75 72 75 81 76 79 76 72 67 66 73 76 69 75 77
34 38 40 39 39 45 50 51 55 63 74 77 74 71 72 70 70 66 69 82 72 76 76 78 74 71 75 75 73 79 77 81
42 44 45 43 43 50 61 66 68 71 74 72 71 77 85 80 78 79 79 77 78 82 81 75 74 79 82 76 81 78 86 86
43 47 45 43 47 56 57 65 68 79 83 79 82 90 87 80 76 97 83 92 84 90 82 80 83 83 84 85 86 87 85 79
37 35 36 39 44 55 54 62 72 81 78 79 87 89 87 90 82 89 88 91 96 93 89 88 84 84 83 84 83 84 84 73
31 30 30 31 37 46 51 52 60 69 75 82 86 83 77 78 89 90 92 94 95 92 91 86 81 80 77 72 75 68 62 59
31 30 28 31 35 41 47 56 71 81 84 83 81 83 85 87 91 90 90 94 92 89 83 78 71 63 63 62 56 56 55 53

GFSFLT1_prec_cthk_039.txt.gz
RH
44 43 41 41 41 40 42 46 44 46 54 54 58 72 66 57 52 45 43 47 46 50 53 52 46 40 40 41 45 44 41 40
44 41 42 43 43 43 44 49 53 58 53 57 62 60 62 57 49 46 45 47 50 51 49 43 41 39 42 47 48 46 46 47
41 40 40 41 45 46 50 51 55 53 53 57 60 62 63 54 50 47 46 50 47 46 42 39 38 41 49 51 50 51 51 55
43 43 43 44 44 46 50 53 58 56 55 58 62 60 57 55 52 51 50 48 45 40 40 41 44 51 54 53 54 55 61 61
50 50 54 54 52 52 55 59 63 62 58 59 60 60 58 58 56 51 49 46 44 44 47 51 58 62 66 69 76 66 58 53
46 50 56 60 65 62 58 68 73 63 59 58 61 64 59 62 58 50 47 48 49 52 56 60 64 74 77 77 77 69 57 54
54 56 60 65 66 61 70 72 72 63 63 58 59 59 61 63 57 50 52 55 59 64 68 67 71 77 87 81 75 63 52 55
51 54 59 64 62 62 74 65 64 62 59 58 58 57 59 68 63 59 63 69 75 76 76 75 87 78 93 79 62 66 58 62
46 53 55 60 62 65 72 58 57 57 55 55 55 58 58 62 73 74 79 81 79 77 80 83 89 85 80 78 74 74 65 51
37 38 46 51 61 64 60 51 52 50 50 55 54 57 64 70 77 81 79 83 85 82 88 86 85 86 83 79 73 66 64 66
32 34 40 44 53 44 45 47 46 45 46 50 58 67 63 70 79 83 86 87 84 88 90 79 86 81 82 77 68 66 73 75
24 27 27 28 31 34 37 37 38 41 44 49 54 64 73 77 80 77 80 77 86 81 77 78 83 81 81 80 75 77 82 75
24 27 30 33 35 37 40 40 43 47 55 63 69 76 82 81 80 77 81 82 86 84 90 92 90 87 84 80 84 86 80 76
34 35 38 42 43 42 43 47 52 59 73 78 79 80 86 87 88 91 89 84 81 84 93 92 91 90 84 88 90 82 78 80
34 39 44 46 46 47 53 66 64 75 76 75 76 87 87 85 89 92 86 87 96 94 92 94 90 86 88 87 83 80 81 80
39 42 46 45 47 53 60 63 70 66 75 83 75 86 85 90 91 85 92 84 88 89 93 94 93 93 93 85 82 77 64 63
38 39 39 38 40 41 44 48 54 56 58 67 73 85 90 93 87 82 83 89 92 94 96 95 97 94 85 66 57 54 49 50
36 33 33 33 32 34 36 39 43 51 60 70 77 85 88 82 82 83 91 91 96 98 97 93 84 64 56 46 38 32 35 40
35 35 34 32 31 32 36 41 49 55 64 70 75 76 76 80 86 90 89 89 92 92 85 63 54 41 29 23 24 31 38 41

GFSFLT1_prec_cthk_042.txt.gz
RH
47 47 43 45 47 45 46 45 46 44 42 47 55 64 70 63 53 53 50 49 50 52 53 54 57 57 47 42 44 45 45 42
47 46 43 40 40 40 45 50 56 52 48 55 63 64 63 62 60 59 53 51 51 53 53 57 54 47 44 45 46 46 45 40
46 44 44 42 41 41 46 52 59 58 53 55 58 56 60 61 60 60 54 51 54 56 54 53 46 44 45 47 48 50 50 51
47 45 43 44 42 43 45 48 55 58 53 53 54 60 61 60 62 58 53 55 57 54 50 47 45 46 47 51 56 59 61 63
48 50 54 57 54 53 53 54 59 62 58 53 52 55 58 61 60 58 56 58 55 51 49 48 49 51 56 60 66 69 75 81
48 52 54 60 61 62 62 58 61 71 62 56 55 54 64 72 72 65 68 72 60 53 56 62 64 64 64 74 84 85 83 68
49 52 65 71 72 71 66 64 69 72 68 58 60 59 66 73 79 75 75 75 68 71 73 74 73 73 78 86 91 96 85 64
48 51 59 64 71 73 65 69 68 62 62 57 60 61 65 68 77 75 82 79 77 77 78 82 82 81 87 96 91 76 74 68
39 49 54 61 66 68 67 70 65 58 56 56 58 60 63 68 79 83 85 85 85 87 86 86 83 90 93 92 85 80 76 74
32 38 46 52 57 57 65 59 57 52 51 54 55 66 70 75 80 87 87 85 87 87 92 86 93 88 84 84 86 84 80 76
29 32 33 36 38 45 45 41 42 46 50 52 54 63 66 73 74 79 82 86 84 74 83 83 84 85 84 89 88 84 83 82
25 27 27 27 30 32 34 36 41 45 45 45 52 61 70 77 81 84 83 87 87 88 92 90 89 86 89 91 87 85 88 86
26 26 26 28 32 36 39 44 53 57 61 61 71 78 84 85 82 82 83 88 89 93 93 89 91 91 92 91 91 87 88 82
40 40 39 39 41 47 56 55 59 70 75 79 83 85 82 80 85 87 86 88 91 91 87 92 87 91 90 91 92 91 89 81
31 31 34 42 48 51 54 58 61 64 66 73 78 77 79 85 85 84 81 88 88 95 81 90 95 96 92 94 94 93 82 61
35 36 40 44 46 48 49 49 47 47 51 64 66 66 64 72 78 82 85 87 85 83 90 86 91 93 96 95 90 77 51 35
38 38 39 39 37 34 33 35 39 41 46 51 54 60 68 77 80 79 79 90 75 93 96 94 97 97 94 84 58 37 31 28
37 36 35 32 30 31 30 31 31 36 41 46 54 60 66 71 74 75 74 84 88 98 97 98 97 86 66 44 32 23 22 25
37 36 34 34 33 30 29 31 35 40 48 56 61 64 69 73 75 80 86 92 98 98 97 93 83 59 38 25 22 19 22 27

GFSFLT1_prec_cthk_045.txt.gz
RH
54 53 52 55 56 54 51 52 53 53 49 47 48 52 57 61 61 57 55 51 51 50 53 52 52 56 56 50 41 41 43 44
50 49 46 47 46 46 48 52 53 55 49 49 50 54 57 64 59 57 54 53 51 50 52 53 54 55 51 44 43 44 47 54
46 47 44 42 42 46 50 53 58 63 58 49 52 54 58 60 58 61 64 61 56 51 55 52 53 52 49 45 47 51 57 57
43 44 45 44 40 39 43 49 55 63 62 54 53 53 55 58 59 64 62 57 53 53 56 56 57 53 53 55 57 62 64 63
43 42 47 46 45 46 47 51 55 60 65 58 54 52 55 59 64 72 72 70 65 67 67 64 63 63 64 65 66 70 74 73
45 51 55 53 55 56 61 62 61 60 66 69 59 58 59 59 70 79 79 81 76 76 72 71 71 72 72 73 75 80 84 86
58 55 59 63 64 61 64 67 66 67 76 76 70 64 64 63 66 71 74 83 81 80 82 79 78 79 79 85 87 93 94 89
58 59 61 62 64 68 66 69 64 71 72 70 67 61 63 64 66 69 78 85 85 89 89 84 83 85 89 90 90 97 90 82
47 50 56 61 62 64 66 71 66 74 78 73 65 58 57 61 65 72 79 87 89 93 90 90 91 92 86 86 92 86 83 83
29 38 43 51 58 60 67 70 68 68 66 65 56 57 59 58 71 82 84 91 92 94 91 93 92 90 93 89 91 87 85 88
27 26 28 34 44 48 54 59 58 56 47 48 52 58 61 64 73 81 86 91 94 95 91 93 91 94 95 95 92 93 94 88
24 24 26 26 29 33 37 40 37 37 41 48 56 63 69 74 82 88 90 92 91 95 97 96 95 95 96 91 92 97 94 92
31 27 23 25 26 28 29 33 38 44 54 61 69 74 80 84 84 87 91 91 94 97 96 93 97 95 96 92 94 98 94 91
42 41 40 39 39 42 44 45 49 56 62 69 73 73 73 80 86 89 91 91 90 85 86 88 98 95 95 92 96 95 92 90
34 39 45 48 47 49 52 51 54 53 54 52 50 51 64 81 85 82 82 82 82 88 88 90 92 92 95 96 98 97 94 86
37 40 43 44 45 47 49 49 47 46 47 48 52 59 57 65 64 60 65 71 74 79 88 81 86 92 95 98 97 94 90 77
41 42 45 45 45 43 42 40 35 36 37 40 46 51 53 53 55 58 66 72 79 82 84 83 89 95 97 97 95 86 73 50
42 43 43 41 40 39 36 33 32 32 33 38 43 49 53 56 59 61 67 69 82 80 90 96 98 98 97 92 82 68 51 29
42 41 40 40 39 36 32 29 29 32 37 43 49 53 56 58 62 66 71 79 86 88 93 96 95 89 80 70 54 38 26 22

GFSFLT1_prec_cthk_048.txt.gz
RH
52 54 57 60 64 66 65 63 62 59 57 54 54 56 57 62 67 69 67 62 58 57 52 52 50 49 50 50 50 43 38 41
57 53 53 56 57 57 61 63 64 64 58 54 51 55 59 63 66 61 59 58 58 53 50 48 50 48 49 50 51 44 44 49
51 49 48 47 51 53 57 58 62 64 64 58 53 56 62 63 64 62 58 57 56 57 52 47 49 53 53 55 55 51 55 57
48 47 44 43 44 49 52 57 62 66 69 67 60 59 60 65 63 64 61 65 66 56 53 56 60 63 64 64 62 60 62 65
45 46 45 45 44 44 47 52 57 62 66 72 64 59 59 60 63 62 65 73 75 74 70 70 71 71 70 68 68 68 69 71
41 43 51 49 51 53 53 55 60 64 64 67 72 64 62 66 66 64 65 72 75 73 73 76 77 77 74 75 76 76 77 84
48 50 57 58 57 61 61 65 69 76 71 72 80 78 73 71 68 66 65 66 73 79 86 89 86 86 82 81 78 79 84 89
56 54 63 63 63 64 64 68 75 79 76 77 79 80 80 77 69 66 64 66 71 79 86 91 91 93 89 85 83 86 87 87
51 55 61 68 67 69 68 68 76 82 75 79 81 78 80 74 70 67 64 72 79 83 88 91 94 96 95 90 90 91 95 93
39 45 51 58 64 67 70 73 77 82 79 75 73 80 75 68 69 70 71 79 86 92 94 95 97 97 93 95 91 95 96 93
42 33 37 46 54 60 70 74 71 74 75 68 63 58 55 61 65 69 77 83 86 91 94 96 93 94 92 88 94 95 97 95
40 36 29 33 38 45 55 57 57 60 60 56 46 46 54 62 68 75 79 81 87 91 96 95 96 95 91 91 89 98 97 98
37 34 33 35 36 37 40 43 48 48 45 43 47 55 64 72 77 73 78 88 93 95 97 94 95 90 86 89 95 98 98 92
34 38 40 40 39 40 40 41 44 46 49 50 54 57 57 58 56 60 80 88 94 91 91 93 89 78 86 89 88 91 92 94
33 35 41 46 49 51 52 51 50 49 49 52 51 50 50 52 54 57 61 66 78 78 71 72 72 84 90 92 87 89 94 97
37 37 41 46 48 49 51 55 57 52 53 52 52 49 52 56 57 56 57 59 60 62 65 72 84 92 88 89 92 97 98 97
38 42 46 49 53 55 56 54 53 53 52 44 41 40 42 46 50 52 53 55 57 61 67 72 74 81 86 91 95 96 96 89
41 47 50 51 50 50 49 48 45 42 38 37 37 38 41 45 49 53 55 56 60 67 70 75 83 88 92 95 94 80 69 57
41 42 45 45 47 46 44 43 40 37 34 34 37 41 44 46 49 53 55 58 65 71 74 79 84 84 78 68 58 49 44 40

GFSFLT1_prec_cthk_051.txt.gz
RH
57 62 61 60 61 61 63 71 75 73 63 50 49 51 50 59 64 65 65 69 76 72 68 63 55 53 50 49 50 48 49 47
54 54 57 58 61 61 58 58 62 63 60 60 57 57 60 62 70 72 78 79 61 58 62 55 50 51 50 48 49 52 56 55
51 53 53 52 54 58 63 62 62 66 64 57 55 53 59 64 69 71 70 64 56 56 59 55 53 54 53 58 62 64 65 59
46 43 43 46 52 52 55 58 63 70 70 71 65 58 61 65 69 70 65 62 61 65 68 68 69 64 67 68 69 69 68 64
46 44 43 42 44 47 49 53 58 62 66 72 71 65 62 63 65 68 68 63 68 76 78 77 73 70 71 75 72 73 74 72
44 43 41 44 44 45 48 52 54 60 68 67 72 66 68 67 66 67 71 69 67 71 75 77 79 76 80 84 82 82 82 79
52 50 51 53 49 51 52 54 56 58 65 72 74 77 76 73 74 75 76 73 68 65 71 74 80 86 89 90 88 86 85 82
53 58 54 62 59 60 66 59 57 65 77 81 82 87 84 80 79 80 80 71 69 67 68 75 83 86 89 93 92 92 91 86
52 55 61 63 68 68 69 70 66 70 83 96 84 84 88 83 80 79 77 76 74 75 74 83 90 90 92 94 97 95 96 90
50 54 53 57 60 68 72 74 76 78 83 80 79 98 75 73 73 71 72 72 82 80 87 93 91 91 93 96 97 95 93 92
46 50 59 56 58 64 67 72 77 82 83 81 80 79 80 74 67 60 64 71 78 84 86 85 88 94 96 94 92 94 90 91
48 49 49 52 54 56 60 66 70 74 76 73 73 72 66 59 54 61 68 72 77 77 74 87 90 94 91 93 97 93 96 85
43 43 48 45 41 50 55 59 60 65 67 64 63 59 50 48 55 58 62 64 62 62 71 87 98 98 90 98 93 95 83 77
35 38 42 45 44 45 46 49 57 63 61 62 59 51 56 56 59 59 57 58 59 60 66 70 73 81 76 75 72 71 85 89
33 32 35 44 51 54 54 56 57 57 59 61 57 55 59 63 61 56 52 59 57 60 61 63 65 66 67 70 72 77 84 90
39 37 38 34 39 46 52 50 50 50 54 58 62 63 61 59 53 53 54 55 56 59 62 63 61 64 66 69 72 76 77 84
35 41 46 46 47 51 52 49 55 63 65 64 62 60 57 46 42 42 44 47 48 51 53 56 60 62 66 70 73 77 83 84
34 39 45 47 50 53 59 63 63 61 59 56 51 44 41 38 37 41 45 48 48 49 52 57 64 66 69 71 72 72 66 60
34 42 45 50 54 55 58 57 57 55 51 47 42 38 35 36 39 42 43 45 48 53 58 61 63 64 62 57 52 47 41 38

GFSFLT1_prec_cthk_054.txt.gz
RH
49 49 48 52 55 54 57 61 62 60 60 60 61 62 59 51 49 54 58 56 61 69 76 79 67 58 54 51 52 51 48 46
49 52 50 48 48 48 50 52 58 59 53 46 52 50 47 45 53 54 64 75 78 80 74 64 58 53 53 53 54 53 55 58
48 48 48 50 50 48 48 50 54 58 54 49 46 49 50 49 58 78 69 74 73 57 55 59 58 56 58 62 63 63 65 66
43 43 42 42 45 47 47 48 52 53 55 57 56 52 48 50 52 59 61 66 68 55 53 61 67 68 71 72 65 68 72 77
44 42 41 41 43 43 45 48 50 55 57 65 68 60 60 59 57 64 62 63 61 63 66 71 69 71 73 72 75 77 82 84
40 39 38 41 43 44 44 49 52 57 65 68 79 73 67 64 64 63 64 65 65 65 68 68 69 73 73 82 85 86 91 91
46 50 47 44 47 50 48 51 54 58 65 68 76 83 82 77 78 74 70 71 72 70 69 69 70 71 78 84 91 96 96 96
47 46 51 49 50 53 53 55 59 60 65 70 78 82 87 80 79 78 81 81 78 75 75 74 75 76 84 91 93 92 92 94
50 47 48 56 54 53 54 59 62 67 69 69 75 70 78 88 89 74 81 79 77 74 77 83 84 86 90 94 90 92 96 98
51 50 55 55 56 50 53 59 64 68 68 78 70 74 72 74 80 89 80 79 79 66 82 84 85 87 82 88 92 92 93 93
39 51 56 62 60 56 52 60 66 69 67 72 71 71 71 73 82 79 77 75 72 82 78 79 78 76 69 80 90 99 98 98
37 42 49 58 65 69 71 53 64 70 73 76 77 75 71 74 73 73 66 70 70 67 64 63 64 62 63 71 82 87 88 98
31 37 50 59 65 67 61 52 54 65 77 86 85 81 80 74 76 70 66 60 60 63 60 55 57 59 63 66 64 78 69 79
35 34 34 37 48 63 69 67 63 55 63 79 87 80 77 71 62 61 59 62 63 61 57 55 58 61 62 63 62 64 64 67
36 37 34 35 38 40 47 53 57 55 60 63 67 68 62 62 58 60 64 63 61 56 55 57 59 61 60 60 61 61 63 67
36 39 40 38 34 37 43 47 51 57 57 57 55 56 54 58 64 67 64 61 56 51 51 53 53 55 56 56 59 66 70 74
41 45 45 42 40 41 38 44 46 51 52 52 58 63 66 69 66 64 53 47 44 44 45 47 48 50 55 59 63 67 70 71
39 41 50 54 48 48 51 49 48 51 59 65 69 68 64 59 54 46 42 39 40 42 44 46 50 55 59 62 64 64 61 54
34 38 44 52 54 53 54 56 59 62 61 57 58 58 55 50 46 41 38 39 42 45 48 51 55 56 56 54 50 45 41 41

GFSFLT1_prec_cthk_060.txt.gz
RH
39 38 40 41 43 53 66 80 89 91 91 91 92 92 90 85 85 86 82 82 80 79 74 69 68 73 73 56 50 49 52 52
36 36 39 39 41 44 52 59 60 68 75 83 87 89 88 91 89 86 82 78 76 69 63 67 75 75 76 57 56 58 58 60
35 33 33 35 38 41 45 48 48 50 56 59 66 73 80 81 77 71 70 70 64 62 64 68 68 75 66 59 63 62 64 64
37 34 32 34 34 35 38 40 44 47 50 52 54 58 60 59 60 60 62 66 67 70 69 64 60 66 59 65 63 63 67 68
36 33 33 32 32 32 36 38 40 42 47 51 47 46 47 45 47 50 56 54 58 60 53 58 60 59 59 61 64 69 72 75
35 35 35 36 38 39 38 41 42 41 44 44 48 50 50 45 42 42 40 41 46 57 54 55 58 62 60 65 74 82 82 85
42 41 43 41 42 43 45 45 46 43 44 42 46 49 52 55 51 45 40 42 47 54 63 67 70 75 74 74 86 88 91 91
53 52 45 41 41 45 48 47 46 46 46 49 51 53 59 64 65 67 64 61 59 61 67 71 73 78 83 92 93 88 90 90
47 49 45 42 43 42 47 48 44 44 47 51 56 61 66 75 77 79 78 73 74 77 79 78 84 95 95 94 86 88 83 74
40 45 46 46 48 52 48 46 45 43 44 50 52 58 63 75 76 76 83 80 81 81 80 81 86 87 96 86 83 76 69 64
39 40 43 48 50 50 59 58 53 48 46 52 54 60 62 69 72 86 84 86 87 78 82 91 92 86 86 77 74 66 61 58
36 35 38 44 50 48 49 55 58 54 56 62 69 69 71 73 83 88 91 95 91 79 85 91 85 72 69 70 64 58 61 58
39 40 38 39 43 43 45 47 56 61 70 79 86 93 91 91 92 85 90 98 91 85 78 77 67 66 69 66 62 57 57 59
37 36 34 31 36 38 41 46 51 69 80 85 91 79 81 79 78 85 84 73 75 78 73 70 68 70 67 62 57 57 59 52
37 38 37 34 28 29 33 40 47 67 75 86 73 74 75 70 73 86 74 66 66 68 72 76 75 71 63 61 51 52 52 57
41 42 41 32 25 24 28 33 37 45 58 64 63 68 62 65 72 70 63 69 72 72 76 77 70 65 61 51 49 50 55 59
44 39 42 37 37 38 36 41 43 49 52 57 59 54 54 64 61 61 64 71 74 72 74 72 68 58 50 50 51 54 56 58
47 46 43 34 29 26 26 31 32 35 43 45 49 55 53 55 59 64 73 73 74 75 70 60 54 47 46 49 53 55 57 58
43 44 38 35 31 28 27 30 36 43 48 47 50 52 52 54 58 68 76 70 65 60 56 54 47 44 46 50 53 54 54 50

GFSFLT1_prec_cthk_063.txt.gz
RH
33 36 35 36 42 51 70 84 93 92 94 94 92 90 89 95 89 86 86 85 85 81 76 75 72 69 70 68 65 62 59 55
31 32 34 35 38 45 54 70 82 90 91 98 98 95 95 95 86 86 87 84 83 82 77 75 69 68 68 63 58 55 57 60
29 26 28 34 35 39 44 50 60 64 72 82 88 95 93 93 89 90 89 85 83 82 79 72 68 69 75 63 56 59 65 68
32 27 27 30 32 34 37 41 44 47 54 63 76 80 82 82 84 83 81 80 81 78 74 71 71 71 71 68 61 66 68 67
34 31 28 26 27 30 34 38 44 44 46 48 52 57 64 73 76 77 77 75 71 70 68 69 69 66 65 61 64 64 65 71
31 31 28 32 31 32 33 36 37 38 43 49 50 51 50 53 55 61 64 68 72 75 67 62 59 56 61 66 64 65 71 80
34 36 38 37 36 34 39 41 41 39 37 40 47 52 54 53 51 49 50 54 60 62 56 52 52 56 60 62 65 73 82 89
43 44 39 38 38 39 40 41 41 42 42 42 43 47 51 53 58 57 52 47 46 48 52 55 62 66 71 78 80 85 93 95
48 41 42 41 38 35 37 40 42 40 41 44 45 47 53 59 66 64 63 59 54 55 55 58 65 73 77 81 92 97 90 92
44 44 46 48 48 45 44 42 39 40 39 41 47 49 51 57 68 71 71 74 77 79 77 75 78 83 87 94 95 92 85 84
40 42 45 48 50 51 52 51 56 53 49 45 47 57 62 66 67 75 80 83 89 93 90 86 86 84 88 94 89 88 81 75
38 39 40 44 49 51 54 53 56 60 65 67 59 58 66 72 72 74 77 91 90 94 92 87 82 90 90 91 85 83 73 68
39 36 38 41 44 48 49 53 55 59 67 71 78 81 82 87 87 86 85 91 90 94 85 85 88 91 87 76 77 74 71 66
44 42 38 37 36 36 37 43 48 60 68 72 81 89 94 89 84 90 80 87 88 84 83 80 87 82 85 77 72 71 69 62
47 44 43 38 37 38 32 31 36 44 53 57 68 78 74 73 78 73 81 88 81 77 74 77 74 78 82 78 70 68 66 62
45 47 45 42 42 37 35 29 34 41 45 47 48 59 64 66 63 65 69 81 75 70 74 73 75 82 80 75 71 69 61 57
46 48 44 42 43 47 37 32 34 34 40 43 46 53 57 58 60 63 67 68 70 72 74 73 75 81 76 71 71 62 52 51
46 48 47 45 48 45 42 33 30 27 29 33 43 48 52 58 65 67 65 64 68 69 76 80 80 78 73 72 63 53 52 52
45 48 45 45 45 44 38 34 34 36 33 38 48 56 57 63 66 62 60 61 63 74 81 81 80 76 65 59 53 49 51 55